TimeEDT,TemperatureF,Dew PointF,Humidity,Sea Level PressureIn,VisibilityMPH,Wind Direction,Wind SpeedMPH,Gust SpeedMPH,PrecipitationIn,Events,Conditions,WindDirDegrees,DateUTC
12:53 AM,44.1,28.9,55,30.00,10.0,Calm,Calm,-,N/A,,Clear,0,2013-03-13 04:53:00
1:53 AM,43.0,30.0,60,30.00,10.0,South,4.6,-,N/A,,Clear,180,2013-03-13 05:53:00
2:53 AM,39.0,30.0,70,30.01,10.0,Calm,Calm,-,N/A,,Clear,0,2013-03-13 06:53:00
3:53 AM,37.9,30.0,73,30.02,10.0,Calm,Calm,-,N/A,,Clear,0,2013-03-13 07:53:00
4:53 AM,37.9,30.0,73,30.03,10.0,WNW,4.6,-,N/A,,Clear,290,2013-03-13 08:53:00
5:53 AM,39.0,28.9,67,30.04,10.0,Calm,Calm,-,N/A,,Clear,0,2013-03-13 09:53:00
6:53 AM,37.0,28.9,73,30.05,10.0,Variable,3.5,-,N/A,,Clear,0,2013-03-13 10:53:00
7:53 AM,34.0,28.9,82,30.06,10.0,SSW,3.5,-,N/A,,Clear,200,2013-03-13 11:53:00
8:53 AM,39.9,32.0,73,30.08,10.0,SW,5.8,-,N/A,,Clear,220,2013-03-13 12:53:00
9:53 AM,48.0,30.0,50,30.08,10.0,WSW,12.7,17.3,N/A,,Clear,240,2013-03-13 13:53:00
10:53 AM,52.0,26.1,37,30.07,10.0,West,15.0,20.7,N/A,,Clear,280,2013-03-13 14:53:00
11:53 AM,54.0,26.1,34,30.06,10.0,WNW,8.1,16.1,N/A,,Scattered Clouds,290,2013-03-13 15:53:00
12:53 PM,55.0,19.9,25,30.04,10.0,West,17.3,28.8,N/A,,Scattered Clouds,270,2013-03-13 16:53:00
1:53 PM,57.0,19.9,24,30.02,10.0,West,11.5,25.3,N/A,,Clear,270,2013-03-13 17:53:00
2:53 PM,57.0,19.0,23,30.00,10.0,WNW,17.3,27.6,N/A,,Clear,290,2013-03-13 18:53:00
3:53 PM,57.0,19.0,23,29.99,10.0,WNW,16.1,24.2,N/A,,Clear,290,2013-03-13 19:53:00
4:53 PM,57.0,17.1,21,30.00,10.0,West,13.8,24.2,N/A,,Clear,270,2013-03-13 20:53:00
5:53 PM,54.0,17.1,23,30.01,10.0,West,11.5,-,0.00,,Clear,270,2013-03-13 21:53:00
6:53 PM,48.9,19.0,31,30.06,10.0,NNW,11.5,-,N/A,,Clear,340,2013-03-13 22:53:00
7:53 PM,44.1,18.0,35,30.10,10.0,North,5.8,-,N/A,,Clear,360,2013-03-13 23:53:00
8:53 PM,41.0,19.0,41,30.13,10.0,NNW,8.1,-,N/A,,Clear,340,2013-03-14 00:53:00
9:53 PM,39.0,19.0,45,30.14,10.0,North,6.9,-,N/A,,Clear,350,2013-03-14 01:53:00
10:53 PM,37.9,19.0,47,30.15,10.0,NNW,5.8,-,N/A,,Clear,340,2013-03-14 02:53:00
11:53 PM,36.0,19.0,50,30.17,10.0,NNW,12.7,18.4,N/A,,Clear,340,2013-03-14 03:53:00